Flag for Switzerland Weather past 2 weeks in Worb, Bern, Switzerland

Now
50 °F

Sprinkles. Partly cloudy.


Feels Like: 47 °F
Forecast: 45 / 50 °F
Wind: 7 mph from Southwest

Location: Bern / Belp

Current Time: Mar 29, 2015 at 10:14:49 PM

Latest Report: Mar 29, 2015 at 9:20 PM


Visibility: 6 mi

Pressure: 29.86 "Hg

Humidity: 82%

Dew point: 45 °F

Location of WorbLocation

Historic Weather in Worb — Graph

°F

Worb temperature yesterday

Maximum temperature yesterday: 54 °F (at 12:50 PM)
Minimum temperature yesterday: 28 °F (at 3:20 AM)
Average temperature yesterday: 42 °F

Past Weeks' High & Low Weather Summary

 TemperatureHumidityPressure
High64 °F (Mar 18, 2:20 PM)100% (Mar 15, 1:20 AM)30.27 "Hg (Mar 15, 1:20 AM)
Low25 °F (Mar 15, 5:20 AM)31% (Mar 17, 1:50 PM)29.59 "Hg (Mar 25, 11:50 AM)
Average44 °F77%30.02 "Hg
* Reported Mar 14 8:20 PM — Mar 29 9:20 PM, Worb, Weather by CustomWeather, © 2015

Note: Actual official high and low records may vary slightly from our data, if they occured in-between our weather recording intervals... More about our weather records

Advertising

Worb weather history for previous 24 hours

 ConditionsComfort  
Time TempWeatherWind HumidityBarometerVisibility
9:20 PM
Sun, Mar 29
50 °FSprinkles. Partly cloudy.7 mph82%29.86 "Hg6 mi
8:50 PM52 °FSprinkles. More clouds than sun.8 mph72%29.86 "HgN/A
8:20 PM52 °FOvercast.13 mph67%29.86 "HgN/A
7:50 PM52 °FSprinkles. Partly sunny.5 mph72%29.86 "Hg4 mi
7:20 PM54 °FSprinkles. Broken clouds.15 mph67%29.89 "HgN/A
6:50 PM54 °FBroken clouds.12 mph63%29.89 "HgN/A
6:20 PM54 °FBroken clouds.10 mph63%29.89 "HgN/A
5:50 PM54 °FBroken clouds.13 mph63%29.92 "HgN/A
5:20 PM54 °FBroken clouds.13 mph63%29.95 "HgN/A
4:50 PM52 °FBroken clouds.12 mph72%29.95 "HgN/A
4:20 PM52 °FLight rain. Passing clouds.12 mph72%29.95 "HgN/A
3:50 PM52 °FLight rain. Scattered clouds.12 mph72%29.95 "HgN/A
3:20 PM52 °FLight rain. Scattered clouds.13 mph77%29.95 "HgN/A
2:50 PM52 °FLight rain. Broken clouds.13 mph77%29.95 "HgN/A
2:20 PM52 °FLight rain. Broken clouds.12 mph82%29.95 "HgN/A
1:50 PM52 °FLight rain. Broken clouds.12 mph72%29.98 "HgN/A
1:20 PM52 °FLight rain. Broken clouds.12 mph67%29.95 "HgN/A
12:50 PM54 °FDrizzle. Cloudy.14 mph58%29.98 "HgN/A
12:20 PM54 °FPassing clouds.17 mph58%29.98 "HgN/A
11:50 AM54 °FScattered clouds.17 mph58%29.98 "HgN/A
11:20 AM54 °FPartly sunny.16 mph58%29.98 "HgN/A
10:50 AM54 °FPartly sunny.8 mph63%29.98 "HgN/A
10:20 AM52 °FPartly sunny.9 mph67%30.01 "HgN/A
9:50 AM50 °FBroken clouds.13 mph71%30.01 "HgN/A
9:20 AM50 °FScattered clouds.10 mph71%30.01 "HgN/A
8:50 AM46 °FBroken clouds.9 mph87%30.01 "HgN/A
8:20 AM45 °FBroken clouds.2 mph87%30.01 "HgN/A
7:50 AM45 °FPartly cloudy.6 mph87%30.01 "HgN/A
7:20 AM45 °FPassing clouds.5 mph87%30.01 "HgN/A
6:50 AM50 °FPassing clouds.5 mph71%30.04 "HgN/A
6:20 AM50 °FPassing clouds.6 mph71%30.04 "HgN/A
5:50 AM50 °FOvercast.2 mph71%30.07 "HgN/A
5:20 AM50 °FPartly cloudy.5 mph71%30.07 "HgN/A
4:50 AM46 °FPartly cloudy.3 mph87%30.07 "HgN/A
4:20 AM45 °FMostly cloudy.2 mph93%30.09 "HgN/A
3:50 AM45 °FPartly cloudy.2 mph93%30.09 "HgN/A
3:20 AM45 °FMostly cloudy.2 mph93%30.09 "HgN/A
1:50 AM45 °FPartly cloudy.3 mph93%30.09 "HgN/A
1:20 AM45 °FPassing clouds.3 mph87%30.09 "HgN/A
12:50 AM45 °FPartly cloudy.1 mph87%30.12 "HgN/A
12:20 AM45 °FMostly cloudy.1 mph87%30.12 "HgN/A
11:50 PM
Sat, Mar 28
45 °FOvercast.3 mph87%30.09 "HgN/A
11:20 PM45 °FPassing clouds.7 mph87%30.12 "HgN/A
10:50 PM45 °FPartly cloudy.10 mph87%30.12 "HgN/A
10:20 PM45 °FOvercast.8 mph93%30.15 "HgN/A
Weather by CustomWeather, © 2015

See weather overviewHow to use our weather pages